Weather History for HETB - November, 2012

Change the Weather History Date:

Tuesday, November 13, 2012

  Actual Average (LLOV) Record (LLOV)
Temperature  
Mean Temperature 58 °F -  
Max Temperature 66 °F 72 °F 89 °F (2010)
Min Temperature 51 °F 52 °F 46 °F (2011)
Degree Days  
Heating Degree Days 6    
Growing Degree Days 8 (Base 50)    
Moisture  
Dew Point 49 °F    
Average Humidity 76    
Maximum Humidity 100    
Minimum Humidity 46    
Precipitation  
Precipitation 0.00 in - - ()
Sea Level Pressure  
Sea Level Pressure 30.08 in    
Wind  
Wind Speed 4 mph ()    
Max Wind Speed 10 mph    
Max Gust Speed -    
Visibility 6.2 miles    
Events      
Averages and records for this station are not official NWS values.
T = Trace of Precipitation, MM = Missing Value Source: Averaged Metar Reports

Daily Weather History Graph

Daily Weather History Graph

Search for Another Location

Airport or City:

Trip Planner

Search our weather history database for the weather conditions in past years. The results will help you decide how hot, cold, wet, or windy it might be!

Date:

Astronomy

Nov. 13, 2012 Rise Set
Actual Time 6:03 AM EET 4:46 PM EET
Civil Twilight 5:38 AM EET 5:11 PM EET
Nautical Twilight 5:09 AM EET 5:40 PM EET
Astronomical Twilight 4:41 AM EET 6:08 PM EET
Moon 5:17 AM EET (11/13) 4:22 PM EET (11/13)
Length of Visible Light 11h 32m
Length of Day
10h 42m
Waning Crescent, 0% of the Moon is Illuminated
Nov 13
Waning Crescent
Nov 14
New
Nov 20
First Quarter
Nov 28
Full
Dec 6
Last Quarter

Hourly Weather History & Observations

Time (EET) Temp. Dew Point Humidity Pressure Visibility Wind Dir Wind Speed Gust Speed Precip Events Conditions
12:00 AM 55.4 °F 55.4 °F 100% 30.09 in 6.2 mi WNW 8.1 mph - N/A   Scattered Clouds
1:00 AM 55.4 °F 55.4 °F 100% 30.06 in 6.2 mi WNW 3.5 mph - N/A   Scattered Clouds
2:00 AM 55.4 °F 55.4 °F 100% 30.06 in 6.2 mi WNW 5.8 mph - N/A   Scattered Clouds
3:00 AM 53.6 °F 53.6 °F 100% 30.06 in 6.2 mi Calm Calm - N/A   Scattered Clouds
4:00 AM 51.8 °F 51.8 °F 100% 30.06 in 6.2 mi Calm Calm - N/A   Scattered Clouds
5:00 AM 53.6 °F 51.8 °F 94% 30.06 in 6.2 mi Calm Calm - N/A   Scattered Clouds
6:00 AM 53.6 °F 51.8 °F 94% 30.06 in 6.2 mi Calm Calm - N/A   Scattered Clouds
7:00 AM 55.4 °F 53.6 °F 94% 30.09 in 6.2 mi WNW 5.8 mph - N/A   Scattered Clouds
8:00 AM 55.4 °F 51.8 °F 88% 30.09 in 6.2 mi West 4.6 mph - N/A   Scattered Clouds
9:00 AM 55.4 °F 51.8 °F 88% 30.09 in 6.2 mi Calm Calm - N/A   Scattered Clouds
10:00 AM 57.2 °F 48.2 °F 72% 30.09 in 6.2 mi Calm Calm - N/A   Scattered Clouds
11:00 AM 62.6 °F 46.4 °F 55% 30.09 in 6.2 mi NNW 5.8 mph - N/A   Scattered Clouds
12:00 PM 64.4 °F 44.6 °F 49% 30.06 in 6.2 mi NNW 3.5 mph - N/A   Scattered Clouds
1:00 PM 66.2 °F 44.6 °F 46% 30.06 in 6.2 mi NW 4.6 mph - N/A   Scattered Clouds
2:00 PM 64.4 °F 44.6 °F 49% 30.06 in 6.2 mi NNW 9.2 mph - N/A   Scattered Clouds
3:00 PM 64.4 °F 44.6 °F 49% 30.06 in 6.2 mi NW 9.2 mph - N/A   Scattered Clouds
4:00 PM 64.4 °F 46.4 °F 52% 30.06 in 6.2 mi NW 9.2 mph - N/A   Scattered Clouds
5:00 PM 62.6 °F 46.4 °F 55% 30.06 in 6.2 mi NW 10.4 mph - N/A   Scattered Clouds
6:00 PM 60.8 °F 46.4 °F 59% 30.06 in 6.2 mi NW 9.2 mph - N/A   Scattered Clouds
7:00 PM 59.0 °F 48.2 °F 67% 30.09 in 6.2 mi WNW 8.1 mph - N/A   Scattered Clouds
8:00 PM 55.4 °F 48.2 °F 77% 30.09 in 6.2 mi Calm Calm - N/A   Scattered Clouds
9:00 PM 55.4 °F 48.2 °F 77% 30.09 in - WNW 3.5 mph - N/A   Clear
10:00 PM 53.6 °F 48.2 °F 82% 30.12 in - Calm Calm - N/A   Clear
11:00 PM 53.6 °F 48.2 °F 82% 30.12 in - Calm Calm - N/A   Clear